{"data":{"norad_id":58665,"intl_designator":"2023-185P","name":"MDQUBESAT-2","alt_names":[],"object_type":"PAYLOAD","status":"ACTIVE","operator":null,"country":"ARGN","launch_date":"2023-12-01","launch_site_code":"AFWTR","launch_vehicle":null,"mission":null,"orbit_class":"UNKNOWN","rcs_meters":null,"size_class":null,"mass_kg":null,"dimensions":null,"purposes":[],"wikipedia_slug":null,"has_3d_model":false,"image_url":null,"decayed_at":null,"tle_current":{"epoch":"2026-05-24T21:35:49.945632Z","epoch_age_seconds":90587,"freshness":"FRESH","line1":"1 58665U 23185P   26144.89988363  .00596722  14476-3  17501-2 0  9992","line2":"2 58665  97.5278 238.1173 0010307 261.3121  98.6985 15.92638401134251","mean_motion":15.92638401,"eccentricity":0.0010307,"inclination_deg":97.5278,"raan_deg":238.1173,"arg_perigee_deg":261.3121,"mean_anomaly_deg":98.6985,"bstar":0.0017501,"rev_number":13425,"period_min":90.416003977792,"perigee_km":288.02496202793,"apogee_km":301.78076640402,"semimajor_km":6673.039864216,"source":"CELESTRAK","updated_at":"2026-05-25T13:38:00.879183Z"}}}